Location: Peterborough
(44.3091°N, 78.3197°W)
Time: 19:46:09
(UTC-04:00)

Vanguard 3 - Pass Details

Date: 22 March 2023
Orbit: 507 x 3246 km, 33.4° (Epoch: 06 June)

Event Time Altitude Azimuth Distance (km) Brightness Sun altitude
Exits shadow 04:09:20 28° 190° (S) 4,833 10.6 -31.5°
Maximum altitude 04:17:47 38° 151° (SSE) 4,212 10.6 -30.3°
Drops below altitude 10° 04:32:34 10° 92° (E) 5,348 12.0 -28.1°
Sets 04:36:33 0° 85° (E) 6,042 12.6 -27.5°
